Presure
142 162 154 166 168 171 154 173 140 160 202 168 146 182 167 194 206 200 173 197 249 219 276 280 259 167 238 284 147 277 269 258 259 247 268 271 259 251 259 263 237 147 255 228
146 159 138 167 155 152 167 169 152 152 166 160 178 163 202 181 179 174 186 193 225 240 232 295 280 270 248 170 269 262 265 244 266 254 263 253 247 236 258 236 244 243 232 244
161 137 142 152 173 157 168 165 157 182 186 180 159 160 208 195 195 170 185 185 189 169 241 207 235 303 298 237 271 239 230 140 138 247 247 246 254 244 239 243 237 236 237 250
171 156 139 148 150 158 154 169 173 166 154 135 157 191 154 208 182 177 160 201 213 219 211 177 221 198 214 221 170 285 246 213 219 251 256 246 239 211 231 235 131 165 229 252
155 142 170 144 179 157 158 176 150 147 168 140 172 186 183 151 177 203 193 178 159 206 197 220 166 195 191 248 299 171 168 176 243 228 244 243 249 249 260 112 225 235 174 240
147 130 146 146 152 142 146 167 161 147 168 171 171 148 161 194 158 171 201 165 186 178 177 185 199 195 221 197 233 210 207 282 241 168 172 240 202 247 245 253 251 266 231 246
152 140 166 166 144 170 134 142 160 159 163 140 174 160 142 169 190 167 198 183 186 215 187 167 189 206 214 217 224 233 206 202 230 303 236 232 241 206 212 189 173 242 268 249
132 147 140 145 148 149 175 154 130 161 148 154 165 156 189 181 179 184 169 207 152 183 156 205 193 188 179 214 194 211 221 234 208 244 215 157 235 157 231 253 256 130 199 225
167 137 134 143 160 163 124 144 161 145 155 157 149 120 159 125 196 154 191 159 184 158 178 193 195 167 208 179 198 197 196 172 216 238 212 247 277 267 159 156 151 217 232 146
152 164 125 136 169 157 174 122 140 142 147 170 179 147 156 121 175 140 174 161 198 180 173 165 166 197 197 180 209 208 178 215 212 176 189 230 216 209 267 187 284 283 179 151
127 148 162 151 145 150 179 168 149 166 138 129 170 139 164 173 120 192 123 169 176 192 189 175 150 197 214 194 193 189 198 181 219 205 190 224 220 190 214 192 267 278 355 247
162 157 146 152 160 158 174 149 141 175 156 138 156 165 128 147 190 187 156 173 170 144 170 175 205 153 183 197 216 172 168 163 203 165 190 162 235 232 210 227 190 205 274 282
173 138 127 145 164 178 170 169 149 145 173 169 170 176 159 146 170 148 147 163 167 138 184 179 189 188 158 171 196 185 199 207 204 186 214 195 225 229 220 249 203 266 201 222
129 140 153 169 170 155 172 149 155 170 139 176 168 164 163 125 149 145 190 166 130 141 179 142 185 155 202 160 196 146 193 146 181 202 227 207 207 183 195 196 229 228 219 236
165 172 145 167 159 174 176 144 175 173 179 165 172 133 182 170 143 180 181 148 140 124 183 159 194 127 145 200 189 171 188 142 212 204 195 233 198 203 175 173 203 211 194 191
176 165 179 182 181 166 166 147 173 179 160 166 180 171 161 180 140 164 144 141 151 150 133 192 160 156 179 142 154 180 177 198 203 150 154 161 199 158 217 179 153 203 207 197
169 173 160 155 167 152 167 170 174 179 164 184 153 155 170 159 155 112 184 123 162 146 193 168 185 187 119 185 177 206 181 182 189 218 229 189 230 173 200 161 213 189 205 251
171 171 168 171 172 176 181 167 172 179 180 146 158 169 143 172 170 170 125 162 137 186 166 196 176 137 157 162 152 175 152 157 191 148 198 216 228 209 221 242 223 202 212 206
144 168 174 178 160 177 167 174 172 164 163 160 148 170 159 110 185 170 183 168 127 197 194 159 176 132 181 151 142 199 213 129 190 160 205 162 227 219 203 236 209 189 162 174
174 152 180 175 171 167 182 168 183 158 175 169 172 110 179 186 171 183 171 195 135 192 206 193 137 199 151 175 160 132 131 198 229 211 239 234 133 225 235 232 147 235 238 214
155 159 172 186 176 181 182 173 178 173 149 179 177 139 167 173 150 192 211 212 206 198 132 173 207 158 136 156 154 177 207 139 141 131 202 181 212 244 226 176 201 233 257 237
138 159 151 182 184 147 193 175 176 186 178 192 192 190 193 190 204 203 218 132 146 204 211 202 189 151 158 159 98 132 124 119 180 133 184 159 237 245 232 226 216 213 232 229
149 173 205 206 134 180 216 185 189 187 189 200 200 181 196 212 200 205 95 214 104 209 212 208 157 177 141 183 133 138 142 228 171 200 214 252 250 246 245 215 219 213 221 224
253 178 213 215 189 238 207 207 193 196 199 195 191 186 194 206 174 221 196 194 242 226 223 165 150 126 185 194 143 212 131 232 220 246 219 239 228 226 242 203 231 218 221 216
235 210 201 188 208 158 201 221 204 211 205 212 204 134 213 211 233 225 196 229 215 175 149 134 181 209 218 174 173 118 233 231 253 220 280 237 225 211 212 227 221 226 245 223
241 181 267 211 207 174 214 227 240 199 205 253 239 218 214 234 235 221 247 152 214 240 109 162 242 217 137 252 274 246 243 245 205 239 233 230 215 216 216 228 222 232 227 227
255 186 172 177 189 267 262 200 245 242 107 257 250 219 224 248 211 235 252 262 154 144 228 194 232 230 212 243 124 108 120 289 249 236 146 187 262 237 155 247 245 239 242 247
Wind_Speed
30 44 46 49 52 53 49 55 21 55 74 46 23 68 42 73 79 71 34 55 93 70 57 64 61 11 46 31 13 35 36 37 37 33 28 28 28 27 22 21 11 23 15 11
34 40 29 45 45 45 51 51 48 43 56 56 61 41 66 63 59 39 58 65 87 86 76 68 63 57 54 5 37 38 36 32 33 33 26 22 25 18 18 16 17 14 2 10
34 27 31 40 44 44 46 49 47 61 61 52 36 56 76 67 63 41 63 53 59 25 83 57 68 59 36 42 41 42 31 18 15 25 24 24 20 20 19 16 11 9 10 8
39 31 28 35 37 42 41 46 51 45 44 19 47 63 30 71 55 59 21 72 76 80 67 33 70 46 55 26 13 44 45 39 36 24 22 20 15 7 11 11 14 8 7 10
30 26 41 28 49 39 40 48 35 37 48 25 48 56 49 39 53 61 49 59 23 63 54 74 23 37 32 74 54 11 12 16 39 37 23 20 12 10 13 25 6 5 14 2
24 25 28 29 33 27 29 43 40 34 45 50 47 37 41 60 38 38 59 31 48 52 46 50 59 53 68 40 68 54 26 43 40 9 9 30 20 16 16 11 11 12 12 10
33 23 41 39 27 44 26 28 38 38 41 33 48 41 30 40 56 42 59 41 56 77 53 28 53 58 66 63 62 69 39 39 50 35 22 34 30 17 19 13 13 22 20 19
24 28 26 29 28 33 49 37 28 40 30 36 42 36 57 48 44 58 41 62 25 37 24 62 59 45 47 58 46 55 63 57 53 57 39 25 33 19 28 24 24 28 16 23
45 28 26 29 40 43 24 28 38 33 37 38 37 12 38 15 68 27 63 35 43 35 35 62 58 40 59 28 42 42 46 16 45 66 36 45 53 44 26 24 21 23 24 20
37 50 20 30 48 41 55 15 29 32 34 43 48 32 33 14 51 31 42 30 62 38 41 38 35 52 58 45 58 50 39 54 42 19 31 47 35 36 44 28 38 32 24 24
28 37 50 37 35 40 59 53 37 49 22 26 45 30 41 49 17 68 12 40 45 60 58 26 23 57 72 28 51 50 45 39 54 35 31 49 46 22 33 20 47 42 27 29
55 51 37 41 51 49 61 39 30 60 41 23 42 45 25 27 67 63 27 38 38 21 35 50 71 31 41 48 71 37 42 26 44 22 41 25 54 40 47 44 14 36 46 42
56 36 26 41 61 65 60 60 42 37 60 55 50 58 38 36 48 32 41 27 48 31 49 47 63 59 37 40 55 33 38 60 38 42 53 41 56 50 43 60 40 31 31 45
35 47 57 66 68 52 64 48 53 64 29 65 54 51 50 28 40 39 67 42 27 39 42 29 56 31 78 31 52 19 45 19 36 50 70 47 51 31 42 42 44 42 32 38
63 68 53 69 59 71 73 45 71 67 70 58 61 33 65 50 32 63 53 19 25 27 64 30 69 21 34 80 59 27 55 20 73 50 43 71 50 50 35 31 44 41 39 33
78 66 73 75 75 67 70 55 76 76 57 59 71 62 55 68 34 45 33 24 46 29 45 75 42 46 66 27 35 40 35 66 69 27 30 41 43 24 56 43 33 49 37 32
77 80 66 62 70 62 76 80 79 79 60 81 53 59 83 54 43 26 72 28 18 44 84 67 78 71 29 81 45 89 54 55 60 78 79 44 71 50 53 27 61 52 43 54
85 84 78 77 75 80 88 82 81 86 87 46 59 74 52 88 68 58 37 59 39 71 46 88 68 53 56 54 25 56 38 35 66 26 58 68 71 56 63 72 60 53 51 48
57 84 87 90 72 85 80 86 79 70 65 68 54 80 72 16 93 54 82 51 35 95 87 53 53 50 81 45 36 90 82 28 62 36 67 42 74 67 59 71 58 52 41 44
102 67 101 93 87 82 101 78 91 62 81 77 83 26 98 100 69 80 53 97 42 92 99 72 60 88 65 73 49 26 37 70 86 73 84 81 34 75 76 67 36 65 63 53
79 78 98 112 97 104 103 89 92 84 63 88 90 61 79 75 71 101 110 108 102 96 55 64 95 60 23 67 77 77 87 28 32 30 70 48 67 78 75 60 60 68 67 62
50 79 63 111 111 59 115 94 94 103 93 108 113 114 112 106 112 101 110 45 54 100 97 95 71 79 72 56 18 25 29 38 66 40 63 53 80 78 75 74 68 64 63 65
68 92 123 116 38 102 111 104 111 109 107 112 112 96 107 118 114 116 31 113 22 107 103 99 79 93 59 95 56 38 45 88 68 73 81 89 86 80 79 79 77 70 72 72
123 91 122 129 112 106 118 118 115 119 117 114 112 108 114 120 87 123 101 92 116 110 102 65 78 10 88 93 28 91 35 94 85 93 83 86 82 80 80 75 80 75 80 70
130 136 128 107 111 84 119 121 114 124 121 125 123 60 125 122 126 123 96 122 112 80 67 64 103 113 102 77 81 34 99 94 94 81 96 88 83 76 75 83 83 83 85 80
127 98 122 125 122 72 125 120 120 116 122 120 123 127 125 124 124 121 123 62 114 113 27 67 111 112 22 98 100 97 100 99 75 93 89 86 82 84 84 87 87 88 87 83
122 91 86 89 105 119 118 120 116 116 20 120 119 131 132 129 117 129 114 118 83 60 109 67 114 112 101 108 40 39 36 103 99 94 52 75 98 91 50 92 93 90 89 90
Wind_Direction
31 18 23 23 24 22 26 23 25 27 31 33 23 16 33 21 33 30 33 38 37 41 40 41 40 41 41 49 273 50 54 54 51 61 55 79 66 60 56 72 75 265 43 240
24 17 33 17 22 26 20 20 26 28 18 17 19 27 32 27 23 37 29 31 36 37 36 42 39 40 38 7 46 49 50 49 46 50 50 64 52 63 64 66 49 43 27 31
6 22 20 18 14 19 16 17 18 16 19 23 23 16 29 27 28 25 18 30 27 26 36 38 39 42 41 36 40 42 39 257 260 55 53 49 36 44 52 46 37 35 14 351
355 4 12 12 15 11 15 12 11 13 18 13 13 22 22 26 22 14 36 27 32 35 30 27 28 47 44 27 357 41 36 36 37 46 45 46 52 20 16 35 286 250 330 319
353 3 349 9 357 2 4 3 14 16 4 20 12 19 23 15 20 23 24 7 17 32 24 38 14 36 37 33 42 342 341 11 29 27 31 29 38 38 16 242 295 299 256 301
348 352 354 356 354 5 8 353 359 11 3 4 4 9 12 15 9 22 22 7 22 13 22 18 28 18 30 37 31 35 23 33 29 318 303 18 18 0 360 331 304 303 275 247
327 340 337 339 350 342 360 5 353 356 356 9 357 3 360 11 17 15 17 7 8 16 19 11 10 31 32 31 33 27 30 31 23 24 1 21 17 344 4 355 316 347 318 305
326 323 331 335 337 336 336 340 2 346 357 356 353 357 359 5 12 11 7 11 10 358 357 19 10 12 7 21 11 23 18 24 14 24 28 302 11 299 11 347 349 265 352 353
308 317 325 326 321 324 349 341 336 346 344 344 346 348 347 351 358 360 1 352 13 356 11 7 11 357 15 14 16 14 6 346 15 24 21 19 24 17 299 301 298 356 329 281
303 307 320 317 317 320 318 315 324 339 337 332 339 341 339 318 351 347 354 346 6 12 354 349 352 13 360 351 10 12 359 13 18 335 357 12 7 10 8 317 6 346 305 290
298 299 303 304 307 311 313 315 315 323 323 336 328 331 337 338 322 346 338 349 359 5 4 350 342 2 5 1 360 357 1 347 10 1 354 6 357 346 0 1 359 5 336 341
294 297 292 299 303 307 309 312 318 317 321 313 325 326 340 323 338 341 341 340 347 353 353 349 355 347 358 3 358 334 341 329 3 335 346 311 8 0 350 358 323 2 353 5
287 294 306 293 299 302 303 305 308 311 314 316 320 324 329 321 327 313 332 341 342 336 353 349 349 350 332 346 352 334 2 352 360 332 351 345 354 360 350 355 339 0 344 345
292 288 286 291 294 296 299 297 301 306 308 313 313 314 316 318 315 318 329 325 337 324 346 333 345 336 343 319 343 317 351 296 325 342 350 345 341 334 328 329 349 340 337 347
277 284 284 286 291 294 295 297 298 300 303 304 308 297 316 310 312 316 320 292 313 300 332 330 338 287 320 336 332 321 335 284 341 342 345 341 340 338 329 321 334 334 325 312
280 277 282 283 286 289 290 292 294 296 299 301 307 304 301 310 297 306 308 272 320 291 319 335 326 303 331 314 316 330 328 334 335 309 305 318 332 301 335 314 293 327 320 322
274 277 275 277 281 284 290 288 292 296 294 304 301 301 308 305 302 304 311 302 266 303 325 318 323 330 284 322 314 323 324 323 321 330 332 320 332 309 322 298 329 314 322 333
273 274 276 277 279 283 284 283 288 292 295 294 302 302 287 304 307 305 304 304 294 315 312 318 319 310 312 318 306 314 310 298 323 292 325 324 326 322 323 327 323 319 320 315
273 273 275 277 277 278 277 279 281 287 291 296 287 297 294 274 301 303 304 296 282 308 308 302 323 303 313 295 295 312 321 289 318 311 320 299 321 320 315 320 318 316 293 317
270 268 273 274 275 277 278 279 280 284 285 289 291 267 292 293 297 297 301 302 289 302 305 312 294 313 292 300 303 287 296 313 315 316 317 317 286 315 315 314 298 315 312 307
273 268 271 271 273 274 275 279 283 285 279 289 288 278 287 293 292 294 295 295 295 299 296 306 306 302 275 296 295 298 310 305 310 298 308 305 310 309 309 304 308 309 308 306
255 269 264 269 270 270 274 280 283 282 285 284 282 284 287 289 289 290 289 294 286 296 295 300 295 279 295 296 314 288 289 296 307 307 306 302 303 302 302 303 303 305 302 304
273 268 264 264 284 275 270 278 278 279 280 278 280 278 280 282 285 287 282 288 295 291 293 295 276 290 293 295 288 289 297 297 300 304 303 299 297 297 297 299 299 302 301 302
264 265 262 263 267 267 272 272 274 275 275 276 278 280 280 280 280 282 287 290 287 286 287 293 280 273 294 295 289 292 305 294 294 295 296 294 294 295 294 298 293 296 297 300
259 260 264 270 271 254 270 270 272 271 274 274 275 277 278 279 276 278 278 281 286 289 290 285 282 289 287 289 287 275 291 293 288 292 286 291 291 292 293 292 293 293 290 296
264 269 267 264 266 262 267 269 269 272 273 272 273 273 276 276 275 278 278 280 287 284 284 284 282 283 285 286 285 286 287 287 286 289 289 288 289 290 291 290 291 290 291 292
261 269 269 272 272 266 267 271 269 268 272 273 271 273 274 275 281 277 279 283 263 277 277 281 281 282 289 284 269 294 301 280 286 288 288 287 284 288 292 287 286 289 290 289